Weather History for KHDO - July, 2013

Change the Weather History Date:

Thursday, July 25, 2013

  Actual Average Record
Temperature  
Mean Temperature 87 °F -  
Max Temperature 100 °F 93 °F 102 °F (1998)
Min Temperature 75 °F 70 °F 66 °F (1999)
Cooling Degree Days 22    
Growing Degree Days 37 (Base 50)    
Moisture  
Dew Point 69 °F    
Average Humidity 60    
Maximum Humidity 91    
Minimum Humidity 26    
Precipitation  
Precipitation 0.00 in - - ()
Sea Level Pressure  
Sea Level Pressure 29.98 in    
Wind  
Wind Speed 8 mph (SE)    
Max Wind Speed 16 mph    
Max Gust Speed 18 mph    
Visibility 9 miles    
Events      
Averages and records for this station are not official NWS values.
T = Trace of Precipitation, MM = Missing Value Source: NWS Daily Summary

Daily Weather History Graph

Daily Weather History Graph

Search for Another Location

Airport or City:

Trip Planner

Search our weather history database for the weather conditions in past years. The results will help you decide how hot, cold, wet, or windy it might be!

Date:

Astronomy

Jul. 25, 2013 Rise Set
Actual Time 6:52 AM CDT 8:33 PM CDT
Civil Twilight 6:26 AM CDT 8:59 PM CDT
Nautical Twilight 5:55 AM CDT 9:30 PM CDT
Astronomical Twilight 5:22 AM CDT 10:03 PM CDT
Moon 10:38 PM CDT (7/25) 10:03 AM CDT (7/25)
Length of Visible Light 14h 32m
Length of Day
13h 40m
Waning Gibbous, 88% of the Moon is Illuminated
Jul 25
Waning Gibbous
Jul 29
Last Quarter
Aug 6
New
Aug 14
First Quarter
Aug 20
Full

Hourly Weather History & Observations

Time (CDT) Temp. Heat Index Dew Point Humidity Pressure Visibility Wind Dir Wind Speed Gust Speed Precip Events Conditions
12:51 AM 84.0 °F 90.2 °F 73.0 °F 69% 29.94 in 10.0 mi SE 11.5 mph - N/A   Clear
1:51 AM 82.0 °F 86.3 °F 71.1 °F 69% 29.95 in 10.0 mi SE 9.2 mph - N/A   Clear
2:51 AM 81.0 °F 85.2 °F 72.0 °F 74% 29.96 in 10.0 mi SE 9.2 mph - N/A   Clear
3:51 AM 79.0 °F - 72.0 °F 79% 29.96 in 10.0 mi SE 5.8 mph - N/A   Clear
4:51 AM 78.1 °F - 73.0 °F 84% 29.96 in 9.0 mi ESE 4.6 mph - N/A   Scattered Clouds
5:04 AM 78.8 °F - 73.4 °F 83% 30.02 in 9.0 mi East 3.5 mph - N/A   Mostly Cloudy
5:51 AM 75.9 °F - 72.0 °F 87% 29.98 in 8.0 mi ENE 4.6 mph - N/A   Scattered Clouds
6:51 AM 75.0 °F - 72.0 °F 90% 29.99 in 8.0 mi ENE 4.6 mph - N/A   Clear
7:51 AM 75.9 °F - 73.0 °F 91% 30.00 in 6.0 mi East 4.6 mph - N/A   Clear
8:06 AM 77.0 °F - 73.4 °F 89% 30.05 in 7.0 mi East 5.8 mph - N/A   Mostly Cloudy
8:51 AM 79.0 °F - 72.0 °F 79% 30.01 in 8.0 mi SSE 6.9 mph - N/A   Overcast
9:51 AM 82.0 °F 86.3 °F 71.1 °F 69% 30.01 in 8.0 mi SE 5.8 mph - N/A   Overcast
10:51 AM 84.0 °F 89.0 °F 71.1 °F 65% 30.02 in 9.0 mi Variable 5.8 mph - N/A   Mostly Cloudy
11:18 AM 84.2 °F 89.6 °F 71.6 °F 66% 30.07 in 9.0 mi Variable 4.6 mph - N/A   Scattered Clouds
11:51 AM 88.0 °F 93.8 °F 71.1 °F 57% 30.02 in 10.0 mi SSW 5.8 mph - N/A   Clear
12:51 PM 91.0 °F 95.6 °F 69.1 °F 48% 30.01 in 10.0 mi South 5.8 mph - N/A   Clear
1:51 PM 96.1 °F 98.8 °F 64.9 °F 36% 29.99 in 10.0 mi Variable 6.9 mph - N/A   Clear
2:51 PM 98.1 °F 99.1 °F 62.1 °F 30% 29.97 in 10.0 mi SE 8.1 mph - N/A   Clear
3:51 PM 99.0 °F 98.6 °F 59.0 °F 26% 29.96 in 10.0 mi SSE 9.2 mph 18.4 mph N/A   Clear
4:51 PM 99.0 °F 100.5 °F 62.1 °F 30% 29.95 in 10.0 mi SE 8.1 mph - N/A   Clear
5:51 PM 98.1 °F 99.6 °F 63.0 °F 31% 29.94 in 10.0 mi South 9.2 mph - N/A   Clear
6:51 PM 97.0 °F 99.9 °F 64.9 °F 35% 29.93 in 10.0 mi SSE 12.7 mph - N/A   Clear
7:51 PM 96.1 °F 98.3 °F 64.0 °F 35% 29.92 in 10.0 mi SSE 11.5 mph - N/A   Clear
8:51 PM 91.9 °F 93.3 °F 64.0 °F 39% 29.93 in 10.0 mi ESE 5.8 mph - N/A   Clear
9:51 PM 90.0 °F 90.6 °F 63.0 °F 40% 29.94 in 10.0 mi SE 8.1 mph - N/A   Clear
10:51 PM 87.1 °F 93.6 °F 72.0 °F 61% 29.98 in 10.0 mi SSE 16.1 mph - N/A   Clear
11:51 PM 84.9 °F 90.1 °F 71.1 °F 63% 30.00 in 10.0 mi SE 11.5 mph - N/A   Clear